TITAN 3C TRANSTAGE R/B, 3692

Orbit data source: Space-Track

TITAN 3C TRANSTAGE R/B, 3692 is space debris in GEO originally from a launch on Sun, 09 Feb 1969 UTC launched from the Air Force Eastern Test Range (AFETR). Debris objects in space refer to the collection of defunct objects orbiting the Earth. Examples of debris include non-operational satellites, rocket bodies, and fragments generated from explosions, collisions, or faulty payload assembly.

Loading next visibility...
Identifier
3692, 1969-013B
Orbit
GEO
Country
Flag of USUS
Related business
Manufacturer
Martin Marietta
Mission
Spacecraft
Bus & Motor
TRANSTAGE, Unknown motor
Mass
2,028 kg wet, 2,028 kg dry
Launch date (UTC)
1969-02-09 (57 years ago)
Launch vehicle
Unknown
Launch site
Air Force Eastern Test Range (AFETR)
Object type
Payload
Rocket body
Debris
Shape & HBR
Unknown
Radar Cross Section
Large (>1 m²)

Expand to show TLE details & history
Last TLE update: 6 hours ago

TLE from 6 hours ago
0 TITAN 3C TRANSTAGE R/B
1  3692U 69013B   25306.50952904 -.00000006  00000-0  00000+0 0  9995
2  3692   0.7133  75.0769 0167143  36.7880 344.7432  0.97534932 40119
Epoch: 2025-11-02T12:13Z
TLE epoch observation values (Epoch: 2025-11-02T12:13:43.309Z)
Latitude
0.24394°
Longitude
-129.39849°
Altitude
35,882.474 km
Speed
3.096 km/s
True Right ascension
06h 24m 13s
True Declination
0° 14' 37"
Sunlit
Object was in daylight at epoch
Visualization orbit readout
Latitude
Unknown
Longitude
Unknown
Altitude
Unknown
Speed
Unknown
Apparent Right ascension
Unknown
Apparent Declination
Unknown
Sunlit
N/A
Visualization observer readout
Local Sidereal Time
14:22:49
Azimuth
Unknown
Elevation
Unknown
Doppler factor
Unknown
Orbital elements
Apogee altitude
37,290.666 km
Perigee altitude
35,854.877 km
Semi-major axis
42,950.909 km
Eccentricity
0.01671
Inclination
0.7133°
RAAN
75.0769°
Arg. of periapsis
36.788°
True anomaly
344.22884°
Mean anomaly
344.7432°
Eccentric anomaly
344.48707°
Mean motion
0.24383 °/min
Orbital period
1,476.45 mins
BSTAR
0
Loading maneuver chart data...
Computing Atmospheric mass density...

Documentation

Showing up to 5 results
|